Home > Weather > Tacoma > Past weeks

Flag for USA Weather for the Past 2 Weeks in Tacoma, Washington, USA

Now
55 °F

Overcast.


Feels Like: 53 °F
Forecast: 53 / 63 °F
Wind: 9 mph from North

Location: Tacoma / McChord Air Force Base

Current Time: May 4, 2016 at 3:10:33 PM

Latest Report: May 4, 2016 at 1:58 PM


Visibility: 10 mi

Pressure: 30.05 "Hg

Humidity: 84%

Dew Point: 51 °F

Location of TacomaLocation

Historic Weather in Tacoma — Graph

°F

Tacoma Temperature Yesterday

Maximum temperature yesterday: 70 °F (at 2:58 PM)
Minimum temperature yesterday: 52 °F (at 5:58 AM)
Average temperature yesterday: 62 °F

High & Low Weather Summary for the Past Weeks

 TemperatureHumidityPressure
High86 °F (May 2, 4:58 PM)100% (Apr 20, 3:58 AM)30.38 "Hg (Apr 20, 3:58 AM)
Low38 °F (Apr 26, 4:58 AM)26% (May 2, 4:58 PM)29.63 "Hg (Apr 22, 7:58 AM)
Average57 °F75%30.03 "Hg
* Reported Apr 19 10:58 AM — May 4 10:58 AM, Tacoma, Weather by CustomWeather, © 2016

Note: Actual official high and low records may vary slightly from our data, if they occured in-between our weather recording intervals... More about our weather records

Advertising

Tacoma Weather History for the Previous 24 Hours

Scroll right to see more
 ConditionsComfort  
Time TempWeatherWind HumidityBarometerVisibility
10:58 AM
Wed, May 4
54 °FOvercast.8 mph83%30.07 "Hg10 mi
9:58 AM54 °FMostly cloudy.12 mph81%30.07 "Hg10 mi
8:58 AM54 °FOvercast.12 mph74%30.08 "Hg10 mi
7:58 AM54 °FOvercast.8 mph76%30.07 "Hg10 mi
6:58 AM53 °FPartly sunny.5 mph83%30.08 "Hg10 mi
5:58 AM53 °FOvercast.5 mph81%30.08 "Hg10 mi
4:58 AM54 °FOvercast.9 mph75%30.07 "Hg10 mi
3:58 AM56 °FOvercast.6 mph72%30.08 "Hg10 mi
2:58 AM56 °FOvercast.5 mph77%30.09 "Hg10 mi
1:58 AM56 °FMostly cloudy.5 mph87%30.10 "Hg10 mi
12:58 AM56 °FOvercast.5 mph86%30.11 "Hg10 mi
12:03 AM57 °FMostly cloudy.6 mph82%30.09 "Hg10 mi
10:58 PM
Tue, May 3
58 °FPassing clouds.7 mph80%30.09 "Hg10 mi
9:58 PM59 °FPassing clouds.6 mph77%30.09 "Hg10 mi
8:58 PM61 °FScattered clouds.6 mph72%30.08 "Hg10 mi
7:58 PM62 °FPassing clouds.9 mph68%30.07 "Hg10 mi
6:58 PM64 °FPassing clouds.10 mph68%30.05 "Hg10 mi
5:58 PM65 °FSunny.9 mph67%30.05 "Hg10 mi
4:58 PM67 °FPassing clouds.12 mph64%30.05 "Hg10 mi
3:58 PM70 °FPassing clouds.12 mph60%30.04 "Hg10 mi
Weather by CustomWeather, © 2016

See weather overviewHow to use our weather pages